Location: Chuathbaluk
(61.5726°N, 159.2454°W)
Time: 07:07:33
(UTC+00:00)

XW-2F - Pass Details

Date: 26 January 2021
Orbit: 499 x 520 km, 97.5° (Epoch: 09 March)

Event Time Altitude Azimuth Distance (km) Brightness Sun altitude
Rises 15:59:49 0° 22° (NNE) 2,667 ? -22.1°
Reaches altitude 10° 16:02:17 10° 38° (NE) 1,774 ? -21.8°
Maximum altitude 16:05:20 22° 91° (E) 1,174 ? -21.5°
Drops below altitude 10° 16:08:22 10° 144° (SE) 1,762 ? -21.1°
Sets 16:10:49 0° 159° (SSE) 2,644 ? -20.8°
